Location: Brisbane
(27.5000°S, 153.0170°E)
Time: 02:59:51
(UTC+10:00)

ISS - Visible Passes

Search period start: 23 September 2017 00:00
Search period end: 03 October 2017 00:00
Orbit: 401 x 407 km, 51.6° (Epoch: 23 September)

Date Brightness Start Highest point End Pass type
(mag) Time Alt. Az. Time Alt. Az. Time Alt. Az.
27 Sep -1.5 05:05:33 10° N 05:08:19 25° NE 05:11:06 10° ESE visible
28 Sep -0.7 04:15:06 10° NE 04:16:07 11° NE 04:17:07 10° ENE visible
29 Sep -3.8 04:56:34 10° NW 04:59:52 87° NE 05:03:12 10° SE visible
30 Sep -2.3 04:06:06 22° N 04:07:33 33° NE 04:10:35 10° ESE visible
01 Oct -0.6 03:16:26 13° ENE 03:16:26 13° ENE 03:17:14 10° E visible
01 Oct -2.7 04:49:07 13° W 04:51:32 29° SW 04:54:30 10° SSE visible
02 Oct -3.7 03:59:16 66° SSW 03:59:16 66° SSW 04:02:23 10° SE visible
